Weather History for KMVE - January, 2014

Change the Weather History Date:

Monday, January 13, 2014

  Actual Average Record
Temperature  
Mean Temperature 28 °F -  
Max Temperature 35 °F 22 °F 53 °F (1980)
Min Temperature 21 °F 0 °F -26 °F (1965)
Degree Days  
Heating Degree Days 37    
Moisture  
Dew Point 24 °F    
Average Humidity 81    
Maximum Humidity 93    
Minimum Humidity 60    
Precipitation  
Precipitation 0.01 in - - ()
Sea Level Pressure  
Sea Level Pressure 29.62 in    
Wind  
Wind Speed 10 mph (WNW)    
Max Wind Speed 18 mph    
Max Gust Speed 28 mph    
Visibility 9 miles    
Events Snow    
Averages and records for this station are not official NWS values.
T = Trace of Precipitation, MM = Missing Value Source: NWS Daily Summary

Daily Weather History Graph

Daily Weather History Graph

Search for Another Location

Airport or City:

Trip Planner

Search our weather history database for the weather conditions in past years. The results will help you decide how hot, cold, wet, or windy it might be!

Date:

Astronomy

Jan. 13, 2014 Rise Set
Actual Time 7:58 AM CST 5:05 PM CST
Civil Twilight 7:25 AM CST 5:38 PM CST
Nautical Twilight 6:49 AM CST 6:14 PM CST
Astronomical Twilight 6:13 AM CST 6:49 PM CST
Moon 3:21 PM CST (1/13) 5:47 AM CST (1/13)
Length of Visible Light 10h 12m
Length of Day
9h 06m
Waxing Gibbous, 95% of the Moon is Illuminated
Jan 13
Waxing Gibbous
Jan 15
Full
Jan 23
Last Quarter
Jan 30
New
Feb 6
First Quarter

Hourly Weather History & Observations

Time (CST) Temp. Windchill Dew Point Humidity Pressure Visibility Wind Dir Wind Speed Gust Speed Precip Events Conditions
12:14 AM 33.8 °F 25.8 °F 28.4 °F 81% 29.56 in 10.0 mi NNW 10.4 mph - N/A   Clear
12:34 AM 33.8 °F 24.3 °F 28.4 °F 81% 29.56 in 10.0 mi North 13.8 mph 19.6 mph N/A   Clear
12:54 AM 32.0 °F 22.5 °F 28.4 °F 87% 29.57 in 10.0 mi North 12.7 mph 17.3 mph N/A   Clear
1:14 AM 32.0 °F 21.6 °F 28.4 °F 87% 29.59 in 10.0 mi North 15.0 mph 19.6 mph N/A   Clear
1:34 AM 32.0 °F 21.2 °F 28.4 °F 87% 29.59 in 10.0 mi North 16.1 mph 23.0 mph N/A   Mostly Cloudy
1:54 AM 32.0 °F 20.8 °F 28.4 °F 87% 29.60 in 10.0 mi North 17.3 mph 24.2 mph N/A   Overcast
2:14 AM 32.0 °F 20.5 °F 28.4 °F 87% 29.62 in 10.0 mi North 18.4 mph 27.6 mph N/A   Overcast
2:34 AM 30.2 °F 18.1 °F 23.0 °F 75% 29.63 in 10.0 mi North 18.4 mph 27.6 mph N/A   Overcast
2:54 AM 30.2 °F 18.1 °F 23.0 °F 75% 29.65 in 10.0 mi North 18.4 mph 25.3 mph N/A   Overcast
3:14 AM 30.2 °F 19.3 °F 23.0 °F 75% 29.65 in 10.0 mi North 15.0 mph 20.7 mph N/A   Overcast
3:34 AM 30.2 °F 19.8 °F 24.8 °F 80% 29.66 in 10.0 mi North 13.8 mph - N/A   Overcast
3:54 AM 30.2 °F 20.2 °F 24.8 °F 80% 29.66 in 10.0 mi North 12.7 mph - N/A   Mostly Cloudy
4:14 AM 28.4 °F 18.5 °F 24.8 °F 86% 29.66 in 10.0 mi NNW 11.5 mph - N/A   Scattered Clouds
4:34 AM 28.4 °F 19.1 °F 23.0 °F 80% 29.66 in 10.0 mi North 10.4 mph - N/A   Clear
4:54 AM 28.4 °F 18.5 °F 23.0 °F 80% 29.67 in 10.0 mi NNW 11.5 mph 17.3 mph N/A   Clear
5:14 AM 26.6 °F 17.5 °F 21.2 °F 80% 29.67 in 10.0 mi NNW 9.2 mph - N/A   Clear
5:34 AM 24.8 °F 15.3 °F 21.2 °F 86% 29.67 in 10.0 mi NW 9.2 mph - N/A   Clear
5:54 AM 24.8 °F 14.6 °F 21.2 °F 86% 29.68 in 10.0 mi NW 10.4 mph - N/A   Clear
6:14 AM 24.8 °F 15.3 °F 21.2 °F 86% 29.69 in 10.0 mi NW 9.2 mph - N/A   Clear
6:34 AM 24.8 °F 16.9 °F 19.4 °F 80% 29.69 in 10.0 mi NNW 6.9 mph - N/A   Clear
6:54 AM 24.8 °F 15.3 °F 19.4 °F 80% 29.70 in 10.0 mi NNW 9.2 mph - N/A   Clear
7:14 AM 23.0 °F 13.1 °F 19.4 °F 86% 29.70 in 10.0 mi NNW 9.2 mph - N/A   Clear
7:34 AM 23.0 °F 13.1 °F 19.4 °F 86% 29.70 in 10.0 mi NNW 9.2 mph - N/A   Clear
7:54 AM 21.2 °F 12.6 °F 19.4 °F 93% 29.70 in 10.0 mi NW 6.9 mph - N/A   Clear
8:14 AM 21.2 °F 10.9 °F 19.4 °F 93% 29.71 in 10.0 mi NW 9.2 mph - N/A   Clear
8:34 AM 24.8 °F 16.9 °F 19.4 °F 80% 29.72 in 10.0 mi NW 6.9 mph - N/A   Clear
8:54 AM 24.8 °F 17.9 °F 21.2 °F 86% 29.71 in 10.0 mi WNW 5.8 mph - N/A   Clear
9:14 AM 26.6 °F 19.1 °F 21.2 °F 80% 29.72 in 10.0 mi WNW 6.9 mph - N/A   Clear
9:34 AM 26.6 °F 21.2 °F 21.2 °F 80% 29.72 in 10.0 mi WNW 4.6 mph - N/A   Clear
9:54 AM 28.4 °F 23.3 °F 21.2 °F 74% 29.72 in 10.0 mi NW 4.6 mph - N/A   Clear
10:14 AM 28.4 °F 22.2 °F 21.2 °F 74% 29.72 in 10.0 mi NW 5.8 mph - N/A   Clear
10:34 AM 28.4 °F 21.2 °F 21.2 °F 74% 29.72 in 10.0 mi WNW 6.9 mph - N/A   Clear
10:54 AM 30.2 °F 24.3 °F 21.2 °F 69% 29.71 in 10.0 mi WNW 5.8 mph - N/A   Clear
11:14 AM 30.2 °F 23.4 °F 21.2 °F 69% 29.70 in 10.0 mi WNW 6.9 mph - N/A   Clear
11:34 AM 32.0 °F 23.6 °F 21.2 °F 64% 29.69 in 10.0 mi NW 10.4 mph 17.3 mph N/A   Clear
11:54 AM 33.8 °F 25.8 °F 21.2 °F 60% 29.70 in 10.0 mi NNW 10.4 mph - N/A   Clear
12:14 PM 33.8 °F 26.4 °F 21.2 °F 60% 29.68 in 10.0 mi NNW 9.2 mph - N/A   Clear
12:34 PM 33.8 °F 27.0 °F 21.2 °F 60% 29.67 in 10.0 mi NW 8.1 mph 16.1 mph N/A   Clear
12:54 PM 33.8 °F 26.4 °F 24.8 °F 70% 29.67 in 10.0 mi WNW 9.2 mph - N/A   Clear
1:14 PM 35.6 °F 28.0 °F 24.8 °F 65% 29.66 in 10.0 mi WNW 10.4 mph - N/A   Clear
1:34 PM 33.8 °F 25.8 °F 23.0 °F 65% 29.65 in 10.0 mi NW 10.4 mph - N/A   Scattered Clouds
1:54 PM 33.8 °F 27.7 °F 21.2 °F 60% 29.64 in 10.0 mi WNW 6.9 mph - N/A   Scattered Clouds
2:14 PM 32.0 °F 25.6 °F 23.0 °F 69% 29.65 in 10.0 mi NW 6.9 mph - N/A   Mostly Cloudy
2:34 PM 32.0 °F 26.4 °F 23.0 °F 69% 29.65 in 10.0 mi NW 5.8 mph - N/A   Mostly Cloudy
2:54 PM 32.0 °F 28.7 °F 23.0 °F 69% 29.65 in 10.0 mi NW 3.5 mph - N/A   Overcast
3:14 PM 32.0 °F - 23.0 °F 69% 29.65 in 10.0 mi Calm Calm - N/A   Overcast
3:34 PM 32.0 °F 26.4 °F 24.8 °F 75% 29.65 in 2.5 mi WNW 5.8 mph - N/A Snow Light Snow
3:54 PM 30.2 °F - 24.8 °F 80% 29.63 in 1.8 mi Calm Calm - N/A Snow Light Snow
4:13 PM 30.2 °F 25.4 °F 24.8 °F 80% 29.62 in 10.0 mi South 4.6 mph - N/A   Overcast
4:34 PM 30.2 °F 26.7 °F 26.6 °F 86% 29.61 in 10.0 mi South 3.5 mph - N/A   Overcast
4:54 PM 30.2 °F 24.3 °F 26.6 °F 86% 29.62 in 10.0 mi South 5.8 mph - N/A   Overcast
5:14 PM 30.2 °F 26.7 °F 26.6 °F 86% 29.62 in 10.0 mi SSW 3.5 mph - N/A   Overcast
5:34 PM 30.2 °F 24.3 °F 26.6 °F 86% 29.61 in 10.0 mi SSW 5.8 mph - N/A   Overcast
5:53 PM 30.2 °F 22.6 °F 26.6 °F 86% 29.60 in 10.0 mi South 8.1 mph - N/A   Overcast
6:14 PM 30.2 °F 23.4 °F 26.6 °F 86% 29.58 in 10.0 mi South 6.9 mph - N/A   Overcast
6:34 PM 28.4 °F 20.4 °F 26.6 °F 93% 29.58 in 10.0 mi SSW 8.1 mph - N/A   Mostly Cloudy
6:54 PM 28.4 °F 21.2 °F 26.6 °F 93% 29.57 in 10.0 mi SSW 6.9 mph - N/A   Scattered Clouds
7:14 PM 28.4 °F 21.2 °F 26.6 °F 93% 29.57 in 10.0 mi South 6.9 mph - N/A   Clear
7:34 PM 28.4 °F 21.2 °F 26.6 °F 93% 29.55 in 10.0 mi South 6.9 mph - N/A   Clear
7:54 PM 28.4 °F 20.4 °F 26.6 °F 93% 29.54 in 10.0 mi SSW 8.1 mph - N/A   Clear
8:14 PM 28.4 °F 21.2 °F 24.8 °F 86% 29.52 in 10.0 mi SSW 6.9 mph - N/A   Clear
8:34 PM 28.4 °F 22.2 °F 24.8 °F 86% 29.52 in 10.0 mi SSW 5.8 mph - N/A   Clear
8:54 PM 28.4 °F 21.2 °F 24.8 °F 86% 29.51 in 10.0 mi South 6.9 mph - N/A   Scattered Clouds
9:14 PM 28.4 °F 22.2 °F 26.6 °F 93% 29.50 in 10.0 mi South 5.8 mph - N/A   Mostly Cloudy
9:34 PM 28.4 °F 22.2 °F 26.6 °F 93% 29.49 in 10.0 mi South 5.8 mph - N/A   Overcast
9:54 PM 28.4 °F 22.2 °F 26.6 °F 93% 29.49 in 10.0 mi SSW 5.8 mph - N/A   Overcast
10:14 PM 30.2 °F 25.4 °F 26.6 °F 86% 29.49 in 10.0 mi SSW 4.6 mph - N/A   Overcast
10:34 PM 30.2 °F 26.7 °F 26.6 °F 86% 29.48 in 7.0 mi South 3.5 mph - N/A Snow Light Snow
10:54 PM 28.4 °F - 26.6 °F 93% 29.49 in 7.0 mi Calm Calm - N/A Snow Light Snow
11:14 PM 30.2 °F - 26.6 °F 86% 29.49 in 2.5 mi Calm Calm - N/A Snow Light Snow
11:34 PM 30.2 °F - 26.6 °F 86% 29.49 in 2.0 mi Calm Calm - N/A Snow Light Snow
11:54 PM 30.2 °F 25.4 °F 26.6 °F 86% 29.49 in 2.0 mi West 4.6 mph - 0.01 in Snow Light Snow